• In Germany
  • List of Countries
  • For 7 days
  • Water Temperature
  • Satellite Maps
  • Weather Map
  • Weather Widgets
  • user-avatar
    Login

    Hourly Weather Oruro

    Today, 26 September, Tuesday

    Time Temperature Precipitation Wind Pressure Humidity
    00:00 +6°C° 0 mm 5 mps 476 mmHg 59%
    01:00 +5°C° 0 mm 4 mps 475 mmHg 61%
    02:00 +5°C° 0 mm 3 mps 475 mmHg 63%
    03:00 +4°C° 0 mm 3 mps 475 mmHg 65%
    04:00 +4°C° 0 mm 3 mps 475 mmHg 67%
    05:00 +4°C° 0 mm 3 mps 474 mmHg 69%
    06:00 +4°C° 0 mm 3 mps 475 mmHg 65%
    07:00 +5°C° 0 mm 3 mps 475 mmHg 62%
    08:00 +5°C° 0 mm 3 mps 476 mmHg 58%
    09:00 +8°C° 0 mm 3 mps 477 mmHg 50%
    10:00 +10°C° 0 mm 3 mps 478 mmHg 41%
    11:00 +11°C° 0 mm 3 mps 479 mmHg 32%
    12:00 +12°C° 0 mm 3 mps 479 mmHg 28%
    13:00 +13°C° 0 mm 3 mps 479 mmHg 25%
    14:00 +14°C° 0 mm 3 mps 479 mmHg 21%
    15:00 +14°C° 0 mm 4 mps 478 mmHg 22%
    16:00 +14°C° 0 mm 4 mps 478 mmHg 24%
    17:00 +14°C° 0 mm 5 mps 477 mmHg 25%
    18:00 +12°C° 0.2 mm 5 mps 477 mmHg 33%
    19:00 +10°C° 0.2 mm 5 mps 476 mmHg 42%
    20:00 +9°C° 0.2 mm 5 mps 476 mmHg 50%
    21:00 +8°C° 0.1 mm 5 mps 476 mmHg 53%
    22:00 +8°C° 0.1 mm 5 mps 476 mmHg 55%
    23:00 +7°C° 0.1 mm 5 mps 476 mmHg 58%

    Tomorrow, 27 September, Wednesday

    Time Temperature Precipitation Wind Pressure Humidity
    00:00 +7°C° 0 mm 4 mps 476 mmHg 60%
    01:00 +6°C° 0 mm 4 mps 475 mmHg 63%
    02:00 +7°C° 0 mm 3 mps 475 mmHg 65%
    03:00 +5°C° 0 mm 3 mps 474 mmHg 68%
    04:00 +5°C° 0 mm 3 mps 474 mmHg 70%
    05:00 +4°C° 0 mm 3 mps 474 mmHg 73%
    06:00 +5°C° 0 mm 3 mps 474 mmHg 68%
    07:00 +5°C° 0 mm 3 mps 475 mmHg 63%
    08:00 +7°C° 0 mm 3 mps 476 mmHg 59%
    09:00 +9°C° 0 mm 3 mps 477 mmHg 49%
    10:00 +10°C° 0 mm 4 mps 478 mmHg 38%
    11:00 +12°C° 0 mm 4 mps 479 mmHg 28%
    12:00 +13°C° 0 mm 4 mps 478 mmHg 25%
    13:00 +14°C° 0 mm 4 mps 478 mmHg 22%
    14:00 +14°C° 0 mm 5 mps 478 mmHg 19%
    15:00 +14°C° 0 mm 4 mps 477 mmHg 21%
    16:00 +14°C° 0 mm 4 mps 477 mmHg 23%
    17:00 +13°C° 0 mm 4 mps 476 mmHg 25%
    18:00 +12°C° 0 mm 5 mps 476 mmHg 31%
    19:00 +10°C° 0 mm 5 mps 476 mmHg 38%
    20:00 +9°C° 0 mm 5 mps 476 mmHg 44%
    21:00 +8°C° 0 mm 4 mps 476 mmHg 49%
    22:00 +7°C° 0 mm 4 mps 476 mmHg 54%
    23:00 +7°C° 0 mm 3 mps 476 mmHg 59%

    Day after tomorrow, 28 September, Thursday

    Time Temperature Precipitation Wind Pressure Humidity
    00:00 +7°C° 0 mm 3 mps 475 mmHg 61%
    01:00 +5°C° 0 mm 3 mps 474 mmHg 62%
    02:00 +5°C° 0 mm 3 mps 474 mmHg 64%
    03:00 +4°C° 0 mm 3 mps 474 mmHg 63%
    04:00 +5°C° 0 mm 2 mps 473 mmHg 62%
    05:00 +4°C° 0 mm 2 mps 473 mmHg 61%
    06:00 +4°C° 0 mm 3 mps 474 mmHg 53%
    07:00 +5°C° 0 mm 3 mps 475 mmHg 45%
    08:00 +6°C° 0 mm 4 mps 476 mmHg 37%
    09:00 +8°C° 0 mm 4 mps 477 mmHg 30%
    10:00 +9°C° 0 mm 5 mps 478 mmHg 24%
    11:00 +12°C° 0 mm 5 mps 479 mmHg 17%
    12:00 +13°C° 0 mm 6 mps 479 mmHg 15%
    13:00 +14°C° 0 mm 6 mps 478 mmHg 13%
    14:00 +15°C° 0 mm 6 mps 478 mmHg 12%
    15:00 +15°C° 0 mm 6 mps 478 mmHg 11%
    16:00 +15°C° 0 mm 6 mps 478 mmHg 11%
    17:00 +15°C° 0 mm 6 mps 477 mmHg 11%
    18:00 +13°C° 0 mm 5 mps 477 mmHg 17%
    19:00 +12°C° 0 mm 5 mps 476 mmHg 22%
    20:00 +10°C° 0 mm 4 mps 476 mmHg 28%
    21:00 +8°C° 0 mm 4 mps 476 mmHg 32%
    22:00 +8°C° 0 mm 3 mps 476 mmHg 35%
    23:00 +7°C° 0 mm 3 mps 476 mmHg 38%

    29 September, Friday

    Time Temperature Precipitation Wind Pressure Humidity
    00:00 +6°C° 0 mm 2 mps 475 mmHg 38%
    01:00 +6°C° 0 mm 2 mps 474 mmHg 37%
    02:00 +6°C° 0 mm 1 mps 474 mmHg 36%
    03:00 +5°C° 0 mm 1 mps 473 mmHg 35%
    04:00 +5°C° 0 mm 1 mps 473 mmHg 34%
    05:00 +4°C° 0 mm 1 mps 472 mmHg 33%
    06:00 +5°C° 0 mm 1 mps 474 mmHg 28%
    07:00 +6°C° 0 mm 1 mps 475 mmHg 24%
    08:00 +7°C° 0 mm 1 mps 476 mmHg 19%
    09:00 +8°C° 0 mm 2 mps 477 mmHg 16%
    10:00 +10°C° 0 mm 3 mps 477 mmHg 13%
    11:00 +11°C° 0 mm 4 mps 478 mmHg 9%
    12:00 +13°C° 0 mm 5 mps 478 mmHg 9%
    13:00 +14°C° 0 mm 6 mps 478 mmHg 8%
    14:00 +15°C° 0 mm 7 mps 479 mmHg 7%
    15:00 +15°C° 0 mm 8 mps 478 mmHg 7%
    16:00 +15°C° 0 mm 8 mps 478 mmHg 6%
    17:00 +16°C° 0 mm 9 mps 478 mmHg 6%
    18:00 +13°C° 0 mm 8 mps 478 mmHg 8%
    19:00 +11°C° 0 mm 8 mps 477 mmHg 10%
    20:00 +10°C° 0 mm 7 mps 477 mmHg 12%
    21:00 +9°C° 0 mm 6 mps 476 mmHg 13%
    22:00 +8°C° 0 mm 6 mps 476 mmHg 15%
    23:00 +7°C° 0 mm 5 mps 476 mmHg 16%

    30 September, Saturday

    Time Temperature Precipitation Wind Pressure Humidity
    00:00 +6°C° 0 mm 4 mps 475 mmHg 18%
    01:00 +5°C° 0 mm 4 mps 474 mmHg 20%
    02:00 +4°C° 0 mm 3 mps 473 mmHg 21%
    03:00 +3°C° 0 mm 3 mps 473 mmHg 23%
    04:00 +3°C° 0 mm 3 mps 473 mmHg 24%
    05:00 +3°C° 0 mm 2 mps 472 mmHg 25%
    06:00 +3°C° 0 mm 3 mps 473 mmHg 22%
    07:00 +4°C° 0 mm 3 mps 475 mmHg 19%
    08:00 +7°C° 0 mm 3 mps 476 mmHg 16%
    09:00 +8°C° 0 mm 4 mps 477 mmHg 13%
    10:00 +10°C° 0 mm 5 mps 478 mmHg 11%
    11:00 +13°C° 0 mm 6 mps 479 mmHg 8%
    12:00 +14°C° 0 mm 6 mps 479 mmHg 7%
    13:00 +15°C° 0 mm 6 mps 479 mmHg 6%
    14:00 +16°C° 0 mm 6 mps 479 mmHg 5%
    15:00 +16°C° 0 mm 6 mps 478 mmHg 5%
    16:00 +16°C° 0 mm 7 mps 478 mmHg 5%
    17:00 +16°C° 0 mm 7 mps 478 mmHg 5%
    18:00 +14°C° 0 mm 5 mps 477 mmHg 7%
    19:00 +12°C° 0 mm 4 mps 476 mmHg 9%
    20:00 +10°C° 0 mm 2 mps 475 mmHg 12%
    21:00 +9°C° 0 mm 3 mps 475 mmHg 13%
    22:00 +9°C° 0 mm 3 mps 475 mmHg 15%
    23:00 +7°C° 0 mm 4 mps 475 mmHg 17%

    1 October, Sunday

    Time Temperature Precipitation Wind Pressure Humidity
    00:00 +7°C° 0 mm 3 mps 474 mmHg 18%
    01:00 +5°C° 0 mm 3 mps 473 mmHg 18%
    02:00 +4°C° 0 mm 3 mps 472 mmHg 19%
    03:00 +3°C° 0 mm 3 mps 471 mmHg 19%
    04:00 +2°C° 0 mm 3 mps 471 mmHg 20%
    05:00 +2°C° 0 mm 2 mps 470 mmHg 20%
    06:00 +3°C° 0 mm 3 mps 471 mmHg 18%
    07:00 +4°C° 0 mm 3 mps 473 mmHg 16%
    08:00 +6°C° 0 mm 4 mps 474 mmHg 14%
    09:00 +8°C° 0 mm 5 mps 475 mmHg 12%
    10:00 +10°C° 0 mm 7 mps 476 mmHg 9%
    11:00 +12°C° 0 mm 9 mps 477 mmHg 6%
    12:00 +15°C° 0 mm 9 mps 476 mmHg 5%
    13:00 +16°C° 0 mm 10 mps 476 mmHg 5%
    14:00 +17°C° 0 mm 10 mps 476 mmHg 5%
    15:00 +16°C° 0 mm 11 mps 476 mmHg 5%
    16:00 +15°C° 0 mm 12 mps 475 mmHg 5%
    17:00 +14°C° 0 mm 12 mps 475 mmHg 5%
    18:00 +12°C° 0 mm 11 mps 474 mmHg 7%
    19:00 +9°C° 0 mm 10 mps 473 mmHg 8%
    20:00 +7°C° 0 mm 8 mps 473 mmHg 10%
    21:00 +6°C° 0 mm 7 mps 472 mmHg 11%
    22:00 +5°C° 0 mm 6 mps 472 mmHg 12%
    23:00 +5°C° 0 mm 5 mps 471 mmHg 13%
    Show more